Total_Precipitation_Accumulation
0.02 0.03 0.07 0.10 0.11 0.14 0.16 0.18 0.24 0.21 0.19 0.25 0.34 0.55 0.79 0.92 1.12 1.28 1.23 1.20 1.27 1.33 1.59 1.82 2.01 2.23 2.46 2.63 2.77 2.98 3.21 3.49 3.69 4.03 4.35 4.55 4.69 4.86 4.90 4.87 4.91 4.92 4.94 5.06
0.04 0.05 0.06 0.08 0.07 0.09 0.11 0.15 0.20 0.22 0.22 0.25 0.37 0.57 0.81 0.91 1.06 1.26 1.32 1.36 1.33 1.42 1.58 1.94 2.27 2.70 2.94 3.03 3.08 3.28 3.58 3.85 4.00 4.38 4.87 5.27 5.42 5.51 5.54 5.52 5.64 5.71 5.75 5.90
0.06 0.06 0.05 0.05 0.05 0.05 0.08 0.11 0.14 0.21 0.25 0.31 0.48 0.84 1.07 1.08 1.22 1.35 1.38 1.52 1.51 1.56 1.83 2.07 2.46 2.76 2.91 3.00 3.12 3.29 3.73 4.13 4.54 5.02 5.57 5.98 6.18 6.21 6.10 5.83 5.92 6.04 5.95 6.02
0.05 0.04 0.03 0.04 0.05 0.05 0.07 0.09 0.10 0.15 0.25 0.38 0.45 0.99 1.39 1.48 1.53 1.45 1.46 1.56 1.54 1.57 1.79 2.08 2.32 2.61 2.76 2.89 3.12 3.33 3.71 4.33 4.79 5.14 5.77 6.36 6.62 6.81 6.91 6.69 6.38 6.16 5.92 5.80
0.03 0.04 0.05 0.06 0.06 0.06 0.07 0.06 0.10 0.13 0.18 0.32 0.36 0.79 1.52 1.70 1.82 1.66 1.60 1.62 1.47 1.42 1.59 1.92 2.07 2.34 2.67 2.77 2.87 3.12 3.66 4.22 4.87 5.47 5.99 6.53 6.96 7.18 7.13 6.71 6.28 5.77 5.40 4.98
0.03 0.02 0.03 0.05 0.04 0.04 0.05 0.07 0.14 0.17 0.27 0.48 0.46 0.73 1.56 1.95 2.12 2.15 1.83 1.63 1.47 1.36 1.43 1.58 1.73 1.95 2.31 2.42 2.63 2.95 3.39 4.08 4.73 5.30 5.87 6.33 6.72 6.76 6.44 5.90 5.39 5.05 4.68 4.21
0.07 0.05 0.04 0.04 0.04 0.04 0.06 0.15 0.40 0.57 0.68 0.69 0.54 0.84 1.62 1.83 1.72 1.69 1.75 1.81 1.61 1.32 1.30 1.48 1.57 1.73 1.96 2.13 2.40 2.76 3.29 3.91 4.31 4.78 5.27 5.59 5.80 5.86 5.77 5.42 4.98 4.64 4.23 3.80
0.17 0.16 0.07 0.04 0.06 0.08 0.07 0.18 0.54 0.77 0.82 0.84 0.86 1.30 1.91 1.72 1.40 1.35 1.47 1.57 1.46 1.37 1.40 1.60 1.72 1.83 1.96 2.09 2.26 2.61 3.04 3.48 3.70 3.94 4.33 4.61 4.73 4.77 4.64 4.39 4.04 3.74 3.44 3.18
0.20 0.21 0.09 0.04 0.05 0.06 0.10 0.15 0.26 0.40 0.50 0.80 1.26 1.78 2.31 2.18 1.62 1.40 1.42 1.40 1.36 1.37 1.39 1.58 1.73 1.84 1.93 1.96 2.12 2.28 2.55 2.80 3.02 3.20 3.40 3.53 3.54 3.45 3.35 3.15 2.90 2.68 2.50 2.25
0.22 0.20 0.13 0.07 0.08 0.10 0.13 0.17 0.23 0.43 0.74 1.09 1.41 2.02 2.74 2.68 2.10 1.67 1.58 1.52 1.41 1.35 1.39 1.54 1.60 1.67 1.71 1.66 1.75 1.86 2.08 2.23 2.38 2.49 2.54 2.46 2.46 2.40 2.27 2.10 2.01 1.87 1.68 1.55
0.29 0.28 0.18 0.11 0.13 0.17 0.15 0.19 0.31 0.44 0.55 1.05 1.61 2.37 2.60 2.74 2.51 2.11 1.69 1.47 1.37 1.32 1.30 1.34 1.38 1.41 1.44 1.37 1.37 1.47 1.64 1.84 1.95 1.95 1.98 1.96 1.87 1.70 1.60 1.50 1.45 1.38 1.29 1.27
0.26 0.36 0.33 0.19 0.16 0.14 0.15 0.21 0.35 0.61 0.65 0.79 1.35 2.44 2.54 2.81 2.70 2.35 1.94 1.62 1.49 1.41 1.29 1.22 1.20 1.20 1.21 1.16 1.14 1.21 1.28 1.37 1.42 1.48 1.50 1.51 1.43 1.32 1.27 1.22 1.18 1.19 1.15 1.12
0.21 0.43 0.67 0.70 0.57 0.27 0.18 0.20 0.26 0.37 0.58 0.86 1.38 2.40 2.57 2.48 2.38 2.33 2.12 1.80 1.59 1.52 1.35 1.30 1.21 1.14 1.17 1.26 1.24 1.11 1.12 1.17 1.17 1.21 1.22 1.22 1.25 1.22 1.19 1.20 1.21 1.19 1.14 1.11
0.15 0.43 0.83 1.18 1.11 0.57 0.38 0.29 0.29 0.39 0.76 0.91 1.23 1.84 2.16 2.17 2.20 2.34 2.33 1.95 1.55 1.42 1.32 1.36 1.39 1.34 1.25 1.26 1.38 1.24 1.10 1.09 1.16 1.15 1.12 1.05 1.03 1.08 1.11 1.12 1.13 1.09 1.05 1.07
0.22 0.50 0.48 0.45 0.45 0.43 0.43 0.38 0.38 0.43 0.50 0.86 1.24 1.67 2.08 2.21 2.16 2.12 2.02 1.80 1.50 1.41 1.47 1.44 1.39 1.38 1.31 1.25 1.29 1.27 1.20 1.12 1.30 1.27 1.23 1.13 1.03 1.05 1.10 1.08 1.04 0.99 0.95 0.90
0.27 0.48 0.45 0.43 0.34 0.38 0.43 0.44 0.47 0.55 0.60 0.82 1.30 1.89 2.24 2.30 2.21 2.16 2.07 1.89 1.79 1.70 1.65 1.62 1.54 1.52 1.51 1.41 1.38 1.32 1.30 1.25 1.33 1.39 1.44 1.45 1.34 1.28 1.28 1.19 1.05 1.03 1.02 0.93
0.29 0.51 0.68 0.69 0.39 0.55 0.92 0.73 0.68 0.78 0.85 1.06 1.64 1.95 1.92 2.01 2.14 2.28 2.34 2.21 2.07 1.98 1.90 1.87 1.81 1.74 1.73 1.69 1.60 1.51 1.43 1.39 1.40 1.45 1.48 1.46 1.43 1.41 1.38 1.22 1.08 1.08 1.05 1.02
0.30 0.54 0.70 0.76 0.82 1.40 1.28 0.71 0.71 0.92 1.06 1.16 1.41 1.52 1.56 1.62 1.74 1.85 1.98 2.08 2.09 1.94 1.84 1.84 1.87 1.83 1.82 1.71 1.62 1.55 1.48 1.46 1.49 1.49 1.48 1.43 1.33 1.32 1.25 1.16 1.13 1.09 1.03 1.01
0.21 0.46 0.75 0.86 1.17 1.40 1.23 0.75 0.74 1.16 1.68 1.37 1.31 1.22 1.12 1.10 1.26 1.63 1.81 1.89 2.05 2.08 1.96 1.91 1.86 1.76 1.71 1.67 1.59 1.52 1.51 1.51 1.51 1.48 1.38 1.30 1.21 1.19 1.11 1.09 1.03 0.96 0.91 0.90
0.23 0.36 0.74 0.96 1.39 1.69 1.59 0.79 0.60 1.05 2.11 1.63 1.39 1.25 1.11 1.22 1.54 1.65 1.58 1.60 1.67 1.76 1.81 1.69 1.54 1.44 1.49 1.53 1.50 1.47 1.45 1.44 1.43 1.22 1.04 0.99 1.01 1.00 0.96 0.91 0.86 0.82 0.81 0.80
0.62 0.68 0.86 1.09 1.51 1.73 0.98 0.56 0.72 1.63 2.09 1.64 1.37 1.21 1.14 1.37 1.50 1.30 1.23 1.30 1.32 1.34 1.32 1.24 1.18 1.24 1.32 1.35 1.29 1.29 1.23 1.23 1.19 1.08 0.94 0.91 0.89 0.83 0.79 0.79 0.79 0.76 0.72 0.75
0.76 0.92 1.00 1.18 1.62 1.79 0.81 0.63 1.08 1.32 1.10 1.10 1.07 1.00 0.96 0.94 0.89 0.94 0.97 1.00 0.96 0.97 0.98 0.93 0.96 1.03 1.08 1.04 1.05 1.13 1.13 1.05 0.99 1.02 0.95 0.90 0.81 0.70 0.69 0.81 0.80 0.77 0.78 0.80
0.73 0.86 0.98 1.17 1.44 1.19 0.70 0.65 0.73 0.76 0.83 0.81 0.80 0.75 0.63 0.59 0.57 0.67 0.69 0.69 0.68 0.69 0.75 0.78 0.79 0.84 0.94 0.97 0.99 1.04 1.03 0.93 0.93 1.00 0.98 0.86 0.73 0.75 0.74 0.80 0.79 0.74 0.73 0.68
0.74 0.57 0.68 0.85 0.95 0.78 0.65 0.61 0.57 0.52 0.55 0.55 0.58 0.61 0.53 0.50 0.54 0.59 0.60 0.58 0.56 0.59 0.61 0.68 0.72 0.72 0.80 0.83 0.86 0.92 0.85 0.84 0.99 1.10 1.04 0.89 0.78 0.73 0.70 0.68 0.62 0.58 0.59 0.57
0.74 0.64 0.68 0.83 0.88 0.82 0.78 0.58 0.49 0.42 0.40 0.39 0.43 0.46 0.46 0.47 0.50 0.49 0.51 0.55 0.58 0.60 0.64 0.67 0.71 0.70 0.66 0.67 0.73 0.70 0.71 0.84 1.08 1.06 0.95 0.83 0.69 0.63 0.61 0.54 0.47 0.43 0.41 0.39
0.49 0.60 0.70 0.78 0.70 0.80 0.84 0.62 0.48 0.46 0.43 0.40 0.35 0.35 0.39 0.44 0.51 0.47 0.45 0.48 0.52 0.53 0.57 0.67 0.66 0.59 0.60 0.66 0.68 0.63 0.63 0.73 0.94 0.97 0.79 0.66 0.56 0.49 0.42 0.38 0.38 0.31 0.26 0.24